FW5449 Weather Reports


time (UTC)temp
F
wind
direction
speed
knots
gust
knots
rain 1hr
in
rain 24hr
in
rain mn
in
humidity
%
barometer
mb
20260831230914 85 312 4.3 8.7 0.00 0.00 0.00 42 1006.8
20260831230627 85 249 3.5 8.7 0.00 0.00 0.00 43 1006.9
20260831225905 85 338 3.5 7.0 0.00 0.00 0.00 42 1007.0
20260831225407 85 0 3.5 7.8 0.00 0.00 0.00 45 1007.0
20260831224907 85 343 3.5 7.8 0.00 0.00 0.00 42 1007.0
20260831224402 85 304 2.6 7.8 0.00 0.00 0.00 46 1007.0
20260831224128 84 59 3.5 7.8 0.00 0.00 0.00 42 1007.1
20260831223403 84 346 3.5 10.4 0.00 0.00 0.00 44 1007.1
20260831222901 84 353 3.5 10.4 0.00 0.00 0.00 44 1007.2
20260831222402 83 328 3.5 8.7 0.00 0.00 0.00 45 1007.3
20260831222124 84 18 3.5 7.8 0.00 0.00 0.00 45 1007.2
20260831221401 84 324 4.3 8.7 0.00 0.00 0.00 47 1007.5
20260831220901 83 299 4.3 8.7 0.00 0.00 0.00 46 1007.5
20260831220402 83 291 3.5 8.7 0.00 0.00 0.00 46 1007.6
20260831215859 83 3 3.5 7.0 0.00 0.00 0.00 46 1007.6
20260831215400 82 8 3.5 7.0 0.00 0.00 0.00 49 1007.8
20260831215340 82 313 3.5 7.8 0.00 0.00 0.00 47 1007.8
20260831214357 82 273 3.5 7.8 0.00 0.00 0.00 48 1007.9
20260831213857 82 310 3.5 7.8 0.00 0.00 0.00 48 1007.7
20260831213357 81 14 2.6 7.0 0.00 0.00 0.00 47 1007.9
20260831212855 80 281 2.6 7.0 0.00 0.00 0.00 46 1008.0
20260831212359 80 324 3.5 7.0 0.00 0.00 0.00 51 1008.1
20260831211842 80 291 3.5 10.4 0.00 0.00 0.00 47 1008.1
20260831211340 80 300 1.7 10.4 0.00 0.00 0.00 49 1008.2
20260831210832 79 170 1.7 6.1 0.00 0.00 0.00 48 1008.1
20260831210554 79 291 2.6 6.1 0.00 0.00 0.00 47 1008.2
20260831205834 78 18 1.7 6.1 0.00 0.00 0.00 48 1008.2
20260831205551 78 35 1.7 7.0 0.00 0.00 0.00 49 1008.2
20260831204828 78 342 2.6 7.0 0.00 0.00 0.00 51 1008.3
20260831204325 78 39 2.6 6.1 0.00 0.00 0.00 48 1008.3
20260831204047 79 320 3.5 8.7 0.00 0.00 0.00 49 1008.4
20260831203323 78 317 3.5 8.7 0.00 0.00 0.00 53 1008.3
20260831202821 79 60 2.6 6.1 0.00 0.00 0.00 51 1008.5
20260831202534 77 339 2.6 7.0 0.00 0.00 0.00 54 1008.7
20260831201818 76 64 2.6 7.0 0.00 0.00 0.00 50 1008.7
20260831201534 76 36 1.7 6.1 0.00 0.00 0.00 50 1008.6
20260831200812 77 106 1.7 6.1 0.00 0.00 0.00 50 1008.6
20260831200754 77 347 2.6 6.1 0.00 0.00 0.00 53 1008.8
20260831195811 75 342 1.7 7.0 0.00 0.00 0.00 54 1008.9
20260831195313 75 344 1.7 7.0 0.00 0.00 0.00 54 1009.0
20260831194810 74 274 2.6 7.8 0.00 0.00 0.00 54 1009.1
20260831194308 75 96 1.7 7.8 0.00 0.00 0.00 54 1009.2
20260831193809 75 316 1.7 6.1 0.00 0.00 0.00 57 1009.1
20260831193307 75 335 1.7 7.8 0.00 0.00 0.00 57 1009.2
20260831193040 73 52 2.6 7.8 0.00 0.00 0.00 56 1009.3
20260831192306 73 41 2.6 7.0 0.00 0.00 0.00 57 1009.4
20260831192028 72 49 1.7 6.1 0.00 0.00 0.00 58 1009.5
20260831191303 73 59 2.6 6.1 0.00 0.00 0.00 58 1009.6
20260831190758 72 22 2.6 7.8 0.00 0.00 0.00 60 1009.7
20260831190300 73 317 2.6 7.8 0.00 0.00 0.00 57 1009.7
20260831185754 71 359 1.7 7.0 0.00 0.00 0.00 63 1009.7
20260831185253 71 286 1.7 7.0 0.00 0.00 0.00 60 1009.9
20260831184751 71 349 1.7 6.1 0.00 0.00 0.00 63 1009.8
20260831184516 71 56 2.6 7.0 0.00 0.00 0.00 64 1009.9
20260831184011 71 20 3.5 7.8 0.00 0.00 0.00 64 1009.9
20260831183252 70 320 1.7 7.8 0.00 0.00 0.00 65 1009.9
20260831183013 69 237 1.7 7.8 0.00 0.00 0.00 63 1010.0
20260831182251 71 333 2.6 7.8 0.00 0.00 0.00 66 1010.0
20260831182013 69 16 3.5 7.8 0.00 0.00 0.00 66 1010.0
20260831181251 69 53 3.5 7.8 0.00 0.00 0.00 65 1009.9
20260831181026 69 359 2.6 7.8 0.00 0.00 0.00 68 1010.0
20260831180254 69 28 2.6 6.1 0.00 0.00 0.00 65 1010.1
20260831175744 69 12 2.6 7.0 0.00 0.00 0.00 66 1010.2
20260831175243 67 332 3.5 7.0 0.00 0.00 0.00 67 1010.2
20260831174743 67 52 2.6 7.0 0.00 0.00 0.00 70 1010.3
20260831174243 66 37 2.6 7.0 0.00 0.00 0.00 67 1010.3
20260831174007 67 0 2.6 7.0 0.00 0.00 0.00 66 1010.3
20260831173504 67 308 2.6 7.8 0.00 0.00 0.00 69 1010.2
20260831172734 67 332 2.6 7.8 0.00 0.00 0.00 69 1010.3
20260831172450 67 335 1.7 5.2 0.00 0.00 0.00 69 1010.3
20260831171729 66 37 2.6 6.1 0.00 0.00 0.00 70 1010.3
20260831171230 65 74 1.7 6.1 0.00 0.00 0.00 70 1010.4
20260831170723 65 349 2.6 7.0 0.00 0.00 0.00 72 1010.4
20260831170223 66 308 3.5 7.0 0.00 0.00 0.00 70 1010.3
20260831165717 65 304 2.6 7.0 0.00 0.00 0.00 71 1010.5
20260831165214 65 357 2.6 6.1 0.00 0.00 0.00 72 1010.5
20260831164710 64 344 1.7 4.3 0.00 0.00 0.00 71 1010.5
20260831164206 64 330 2.6 5.2 0.00 0.00 0.00 71 1010.4
20260831163704 64 59 2.6 5.2 0.00 0.00 0.00 72 1010.5
20260831163205 63 76 2.6 5.2 0.00 0.00 0.00 73 1010.5
20260831162704 63 18 1.7 5.2 0.00 0.00 0.00 74 1010.5
20260831162205 61 354 0.9 4.3 0.00 0.00 0.00 78 1010.7
20260831161700 61 29 0.9 2.6 0.00 0.00 0.00 77 1010.7
20260831161154 61 35 0.9 2.6 0.00 0.00 0.00 78 1010.8
20260831160912 59 342 0.9 2.6 0.00 0.00 0.00 79 1010.9
20260831160151 59 79 0.0 2.6 0.00 0.00 0.00 80 1011.0
20260831155649 59 127 0.0 1.7 0.00 0.00 0.00 82 1011.1
20260831155145 58 127 0.0 1.7 0.00 0.00 0.00 81 1011.1
20260831154913 58 127 0.0 0.9 0.00 0.00 0.00 81 1011.1
20260831154136 57 127 0.0 0.9 0.00 0.00 0.00 81 1011.1
20260831153839 56 127 0.0 0.9 0.00 0.00 0.00 83 1011.1
20260831153106 56 127 0.0 0.9 0.00 0.00 0.00 84 1011.1
20260831152603 55 127 0.0 0.9 0.00 0.00 0.00 83 1011.2
20260831152105 55 127 0.0 0.0 0.00 0.00 0.00 84 1011.1
20260831151603 54 127 0.0 0.0 0.00 0.00 0.00 85 1011.0
20260831151059 53 127 0.0 0.9 0.00 0.00 0.00 87 1011.0
20260831150538 53 127 0.0 0.9 0.00 0.00 0.00 86 1011.0
20260831150037 53 127 0.0 0.9 0.00 0.00 0.00 87 1010.8
20260831145530 52 127 0.0 0.0 0.00 0.00 0.00 89 1010.7
20260831145028 51 127 0.0 0.0 0.00 0.00 0.00 90 1010.9
20260831144525 51 127 0.0 0.0 0.00 0.00 0.00 90 1010.8
20260831144022 50 127 0.0 0.0 0.00 0.00 0.00 91 1010.8
20260831143505 50 127 0.0 0.0 0.00 0.00 0.00 91 1010.8
20260831143006 50 127 0.0 0.0 0.00 0.00 0.00 92 1010.9
20260831142505 49 127 0.0 0.0 0.00 0.00 0.00 91 1010.8
20260831141959 49 127 0.0 0.0 0.00 0.00 0.00 91 1010.9
20260831141447 49 127 0.0 0.0 0.00 0.00 0.00 91 1010.8
20260831140928 49 127 0.0 0.0 0.00 0.00 0.00 91 1010.8
20260831140416 49 127 0.0 0.0 0.00 0.00 0.00 90 1010.8
20260831135906 49 127 0.0 0.9 0.00 0.00 0.00 89 1010.9
20260831135405 50 127 0.0 0.9 0.00 0.00 0.00 90 1010.8
20260831134901 50 127 0.9 2.6 0.00 0.00 0.00 90 1010.8
20260831134356 50 127 0.9 2.6 0.00 0.00 0.00 90 1010.8
20260831133854 50 31 0.9 2.6 0.00 0.00 0.00 91 1010.7
20260831133343 49 180 0.9 1.7 0.00 0.00 0.00 91 1010.6
20260831132836 49 180 0.9 1.7 0.00 0.00 0.00 91 1010.6
20260831132331 49 180 0.0 1.7 0.00 0.00 0.00 91 1010.6
20260831131831 49 180 0.9 1.7 0.00 0.00 0.00 91 1010.5
20260831131330 49 180 0.9 1.7 0.00 0.00 0.00 91 1010.6
20260831130828 49 180 0.9 1.7 0.00 0.00 0.00 91 1010.7
20260831130325 49 180 0.0 1.7 0.00 0.00 0.00 91 1010.7
20260831125824 49 180 0.0 1.7 0.00 0.00 0.00 91 1010.8
20260831125326 49 180 0.0 0.9 0.00 0.00 0.00 91 1010.8
20260831124819 49 180 0.0 0.9 0.00 0.00 0.00 91 1010.8
20260831124310 50 180 0.0 0.9 0.00 0.00 0.00 91 1010.9
20260831123804 50 180 0.9 1.7 0.00 0.00 0.00 91 1010.9
20260831123304 50 180 0.9 2.6 0.00 0.00 0.00 90 1011.0
20260831122805 50 180 0.9 2.6 0.00 0.00 0.00 90 1011.0
20260831122251 50 180 0.9 1.7 0.00 0.00 0.00 90 1011.0
20260831121751 50 180 0.9 1.7 0.00 0.00 0.00 89 1011.1
20260831121250 50 180 0.9 1.7 0.00 0.00 0.00 89 1011.1
20260831121242 50 180 0.9 1.7 0.00 0.00 0.00 89 1011.1
20260831120246 50 180 0.9 1.7 0.00 0.00 0.00 89 1011.1
20260831115744 50 180 0.9 1.7 0.00 0.00 0.00 89 1011.1
20260831115246 51 180 0.9 1.7 0.00 0.00 0.00 89 1011.1
20260831114744 51 180 0.9 1.7 0.00 0.00 0.00 89 1011.1
20260831114238 51 180 0.9 2.6 0.00 0.00 0.00 89 1011.0
20260831113958 51 180 0.9 2.6 0.00 0.00 0.00 89 1011.0
20260831113223 51 180 0.0 1.7 0.00 0.00 0.00 89 1011.2
20260831112716 51 180 0.0 0.0 0.00 0.00 0.00 90 1011.1
20260831112208 51 180 0.0 0.0 0.00 0.00 0.00 90 1011.2
20260831111659 51 180 0.0 0.0 0.00 0.00 0.00 91 1011.1
20260831111143 51 180 0.0 0.0 0.00 0.00 0.00 90 1011.1
20260831110631 51 180 0.0 0.9 0.00 0.00 0.00 90 1011.1
20260831110124 51 180 0.0 0.9 0.00 0.00 0.00 89 1011.1
20260831105827 51 180 0.0 0.9 0.00 0.00 0.00 87 1011.1
20260831105100 51 180 0.0 0.0 0.00 0.00 0.00 86 1011.2
20260831104808 52 180 0.0 0.9 0.00 0.00 0.00 86 1011.2
20260831104031 52 180 0.0 0.9 0.00 0.00 0.00 86 1011.1
20260831103754 52 180 0.0 1.7 0.00 0.00 0.00 86 1011.3
20260831103253 52 180 0.9 1.7 0.00 0.00 0.00 85 1011.2
20260831102530 52 180 0.9 1.7 0.00 0.00 0.00 85 1011.3
20260831102028 52 180 0.9 1.7 0.00 0.00 0.00 85 1011.4
20260831101745 52 180 0.9 1.7 0.00 0.00 0.00 85 1011.3
20260831101242 52 180 0.9 1.7 0.00 0.00 0.00 85 1011.4
20260831100516 52 180 1.7 2.6 0.00 0.00 0.00 84 1011.4
20260831100244 52 180 0.9 2.6 0.00 0.00 0.00 84 1011.5
20260831095516 52 267 0.0 1.7 0.00 0.00 0.00 85 1011.5
20260831095007 52 267 0.0 0.0 0.00 0.00 0.00 84 1011.5
20260831094702 53 267 0.0 0.0 0.00 0.00 0.00 84 1011.7
20260831094547 53 267 0.0 0.0 0.00 0.00 0.00 84 1011.6
20260831093456 53 267 0.0 0.0 0.00 0.00 0.00 83 1011.8
20260831092954 53 267 0.0 1.7 0.00 0.00 0.00 83 1011.8
20260831092455 53 267 0.9 1.7 0.00 0.00 0.00 84 1011.7
20260831092212 53 267 0.9 2.6 0.00 0.00 0.00 83 1011.7
20260831091446 53 267 0.9 2.6 0.00 0.00 0.00 82 1011.7
20260831090935 53 267 0.9 1.7 0.00 0.00 0.00 82 1011.8
20260831090430 53 267 0.0 1.7 0.00 0.00 0.00 81 1011.9
20260831085929 54 267 0.0 1.7 0.00 0.00 0.00 82 1011.9
20260831085423 54 267 0.0 1.7 0.00 0.00 0.00 81 1011.9
20260831084919 54 267 0.9 1.7 0.00 0.00 0.00 81 1012.0
20260831084859 54 267 0.9 1.7 0.00 0.00 0.00 82 1012.0
20260831083902 54 267 0.9 2.6 0.00 0.00 0.00 82 1012.1
20260831083358 54 267 0.9 2.6 0.00 0.00 0.00 83 1012.1
20260831083133 54 267 1.7 2.6 0.00 0.00 0.00 82 1012.1
20260831082357 55 267 0.9 2.6 0.00 0.00 0.00 81 1012.1
20260831081851 55 28 0.0 1.7 0.00 0.00 0.00 81 1012.2
20260831081348 55 27 0.0 0.9 0.00 0.00 0.00 81 1012.2
20260831080850 55 27 0.0 0.9 0.00 0.00 0.00 81 1012.1
20260831080349 55 27 0.0 2.6 0.00 0.00 0.00 80 1012.2
20260831075850 56 27 0.9 2.6 0.00 0.00 0.00 79 1012.3
20260831075328 56 27 0.0 1.7 0.00 0.00 0.00 78 1012.4
20260831074832 56 27 0.0 1.7 0.00 0.00 0.00 78 1012.4
20260831074330 56 27 0.0 0.9 0.00 0.00 0.00 78 1012.3
20260831073826 56 27 0.0 0.9 0.00 0.00 0.00 78 1012.4
20260831073318 56 27 0.0 0.9 0.00 0.00 0.00 78 1012.5
20260831072800 56 27 0.0 1.7 0.00 0.00 0.00 77 1012.6
20260831072526 57 27 0.0 3.5 0.00 0.00 0.00 76 1012.7
20260831071801 58 27 0.9 3.5 0.00 0.00 0.00 75 1012.6
20260831071300 57 18 0.9 2.6 0.00 0.00 0.00 75 1012.7
20260831070748 57 18 1.7 3.5 0.00 0.00 0.00 75 1012.6
20260831070247 57 10 0.9 3.5 0.00 0.00 0.00 76 1012.6
20260831065745 56 13 0.9 2.6 0.00 0.00 0.00 76 1012.7
20260831065232 56 241 0.9 1.7 0.00 0.00 0.00 76 1012.7
20260831064722 56 241 1.7 2.6 0.00 0.00 0.00 76 1012.8
20260831064211 56 241 1.7 2.6 0.00 0.00 0.00 76 1012.8
20260831063711 57 241 0.9 2.6 0.00 0.00 0.00 75 1012.8
20260831063211 58 351 0.0 2.6 0.00 0.00 0.00 74 1012.8
20260831062712 58 351 0.0 0.9 0.00 0.00 0.00 73 1012.8
20260831062413 58 351 0.9 2.6 0.00 0.00 0.00 73 1012.8
20260831061652 58 351 1.7 3.5 0.00 0.00 0.00 73 1012.8
20260831061150 58 351 1.7 3.5 0.00 0.00 0.00 72 1012.8
20260831060648 58 331 0.9 2.6 0.00 0.00 0.00 74 1012.8
20260831060141 58 357 0.0 1.7 0.00 0.00 0.00 72 1012.9
20260831055630 59 357 0.0 1.7 0.00 0.00 0.00 71 1013.0
20260831055112 59 357 0.0 2.6 0.00 0.00 0.00 70 1012.9
20260831054615 59 357 0.0 2.6 0.00 0.00 0.00 69 1013.0
20260831054058 60 357 0.9 3.5 0.00 0.00 0.00 68 1013.0
20260831053811 61 357 1.7 3.5 0.00 0.00 0.00 68 1012.9
20260831053051 61 339 1.7 4.3 0.00 0.00 0.00 67 1013.1
20260831052811 61 345 1.7 4.3 0.00 0.00 0.00 67 1013.1
20260831052315 62 333 0.9 2.6 0.00 0.00 0.00 66 1013.2
20260831051545 62 337 1.7 3.5 0.00 0.00 0.00 65 1013.2
20260831051036 63 334 2.6 7.0 0.00 0.00 0.00 65 1013.3
20260831050805 63 15 3.5 7.0 0.00 0.00 0.00 64 1013.3
20260831050035 63 12 3.5 6.1 0.00 0.00 0.00 64 1013.3
20260831045531 64 357 2.6 5.2 0.00 0.00 0.00 63 1013.5
20260831045034 64 8 2.6 5.2 0.00 0.00 0.00 62 1013.4
20260831044533 65 25 3.5 6.1 0.00 0.00 0.00 61 1013.4
20260831044033 65 348 3.5 8.7 0.00 0.00 0.00 60 1013.4
20260831043532 66 0 4.3 8.7 0.00 0.00 0.00 59 1013.4
20260831043033 66 35 4.3 7.8 0.00 0.00 0.00 59 1013.4
20260831042532 66 35 4.3 9.6 0.00 0.00 0.00 59 1013.3
20260831042032 67 32 4.3 9.6 0.00 0.00 0.00 58 1013.3
20260831041822 67 1 5.2 9.6 0.00 0.00 0.00 57 1013.2
20260831041739 67 4 4.3 9.6 0.00 0.00 0.00 57 1013.3
20260831040529 67 30 6.1 12.2 0.00 0.00 0.00 56 1013.2
20260831040031 68 14 6.1 13.0 0.00 0.00 0.00 56 1013.1
20260831035534 68 18 6.1 13.0 0.00 0.00 0.00 56 1013.1
20260831035030 68 31 4.3 10.4 0.00 0.00 0.00 56 1013.1
20260831034524 68 26 4.3 9.6 0.00 0.00 0.00 56 1013.1
20260831034025 68 22 5.2 10.4 0.00 0.00 0.00 55 1013.1
20260831033747 69 58 4.3 10.4 0.00 0.00 0.00 55 1013.2
20260831033023 69 24 3.5 7.8 0.00 0.00 0.00 55 1013.1
20260831032522 69 16 4.3 7.8 0.00 0.00 0.00 55 1013.1
20260831032019 69 25 4.3 8.7 0.00 0.00 0.00 54 1013.0
20260831031956 69 6 4.3 11.3 0.00 0.00 0.00 54 1013.1
20260831031012 69 13 4.3 11.3 0.00 0.00 0.00 54 1013.2
20260831030512 70 30 4.3 9.6 0.00 0.00 0.00 54 1013.1
20260831030009 70 22 4.3 9.6 0.00 0.00 0.00 53 1013.2
20260831025507 70 39 4.3 9.6 0.00 0.00 0.00 52 1013.1
20260831025005 71 22 4.3 9.6 0.00 0.00 0.00 52 1013.1
20260831024504 71 45 4.3 9.6 0.00 0.00 0.00 51 1013.2
20260831024222 71 43 5.2 9.6 0.00 0.00 0.00 51 1013.2
20260831023455 71 45 5.2 9.6 0.00 0.00 0.00 50 1013.2
20260831022953 72 16 6.1 11.3 0.00 0.00 0.00 49 1013.2
20260831022454 72 36 6.1 11.3 0.00 0.00 0.00 47 1013.1
20260831021953 72 5 7.0 13.0 0.00 0.00 0.00 47 1013.1
20260831021452 72 20 7.0 13.0 0.00 0.00 0.00 46 1013.2
20260831021208 72 16 6.1 11.3 0.00 0.00 0.00 46 1013.2
20260831020449 73 6 7.0 12.2 0.00 0.00 0.00 46 1013.2
20260831015949 73 27 7.0 13.9 0.00 0.00 0.00 45 1013.3
20260831015710 73 353 7.0 13.9 0.00 0.00 0.00 44 1013.2
20260831014947 74 12 7.0 11.3 0.00 0.00 0.00 42 1013.3
20260831014450 74 324 7.0 14.8 0.00 0.00 0.00 42 1013.3
20260831013948 74 333 7.8 14.8 0.00 0.00 0.00 40 1013.3
20260831013445 74 9 7.8 13.9 0.00 0.00 0.00 39 1013.3
20260831012945 75 10 7.8 13.9 0.00 0.00 0.00 38 1013.3
20260831012445 75 50 7.8 13.9 0.00 0.00 0.00 38 1013.3
20260831011941 75 347 7.8 13.9 0.00 0.00 0.00 37 1013.4
20260831011702 75 352 7.8 14.8 0.00 0.00 0.00 36 1013.4
20260831010942 75 2 7.8 14.8 0.00 0.00 0.00 36 1013.4
20260831010442 76 18 7.0 13.9 0.00 0.00 0.00 36 1013.5
20260831005941 76 356 7.0 17.4 0.00 0.00 0.00 35 1013.5
20260831005441 76 52 7.0 17.4 0.00 0.00 0.00 36 1013.4
20260831004943 76 10 7.0 13.0 0.00 0.00 0.00 36 1013.5
20260831004437 76 347 7.8 15.6 0.00 0.00 0.00 35 1013.8
20260831004420 76 0 7.8 15.6 0.00 0.00 0.00 35 1013.9
20260831003437 76 1 7.0 12.2 0.00 0.00 0.00 35 1014.0
20260831002939 76 38 7.8 13.0 0.00 0.00 0.00 36 1014.0
20260831002440 76 359 8.7 13.9 0.00 0.00 0.00 35 1014.1
20260831002203 77 63 7.0 13.9 0.00 0.00 0.00 36 1014.0
20260831001438 77 357 6.1 15.6 0.00 0.00 0.00 36 1014.0
20260831000937 77 30 7.0 15.6 0.00 0.00 0.00 36 1014.0
20260831000439 77 52 7.0 13.9 0.00 0.00 0.00 37 1014.0
20260830235939 77 69 7.8 13.9 0.00 0.00 0.00 36 1014.1
20260830235438 78 36 7.8 13.9 0.00 0.00 0.00 36 1014.1
20260830234930 77 16 7.8 13.9 0.00 0.00 0.00 38 1014.2
20260830234431 77 46 7.8 13.0 0.00 0.00 0.00 35 1014.2
20260830233930 77 75 8.7 15.6 0.00 0.00 0.00 34 1014.3
20260830233422 78 357 8.7 15.6 0.00 0.00 0.00 38 1014.3
20260830232920 77 3 7.8 14.8 0.00 0.00 0.00 38 1014.4
20260830232423 78 12 7.8 13.9 0.00 0.00 0.00 37 1014.7
20260830231917 77 0 7.8 13.0 0.00 0.00 0.00 38 1014.7
20260830231418 78 46 7.0 13.0 0.00 0.00 0.00 37 1014.9